Location: Bethel Cemetery
(33.4585°N, 96.4003°W)
Time: 21:10:45
(UTC+00:00)

Daily predictions for brighter satellites

Satellite Brightness Start Highest point End
(mag) Time Altitude Azimuth Time Altitude Azimuth Time Altitude Azimuth
OAO 2 Rocket 3.3 12:05:30 20° W 12:09:12 88° N 12:14:21 10° E
Cosmos 1758 Rocket 3.7 12:07:37 10° S 12:12:01 77° E 12:16:26 10° N
NOSS 3-1 (C) 4.3 12:04:55 13° NW 12:12:03 65° WSW 12:21:17 10° SSE
Meteor 2-20 Rocket 4.2 12:08:43 10° N 12:14:27 86° W 12:20:10 10° S
BREEZE-M DEB (TANK) 4.1 12:11:31 10° SW 12:15:31 72° SE 12:30:38 10° NE
Cosmos 1484 Rocket 2.2 12:12:19 10° N 12:15:41 78° WNW 12:19:01 10° SSW
BREEZE-M DEB (TANK) 3.6 12:14:47 10° SW 12:21:01 70° SE 12:23:43 10° NE
Helios 1A Rocket 2.4 12:19:28 10° S 12:22:45 59° WSW 12:26:03 10° NNW
ISS -1.5 12:20:17 10° SSW 12:23:14 29° SE 12:26:13 10° ENE
IRS-1D 4.5 12:20:02 10° NNW 12:24:04 25° WNW 12:28:10 10° WSW
[s.n.66875] 1.9 12:23:59 10° SW 12:26:28 57° SSE 12:28:59 10° ENE
[s.n.66873] 1.9 12:24:41 10° SW 12:27:10 58° SSE 12:29:41 10° ENE
[s.n.66876] 1.8 12:25:09 10° SW 12:27:38 59° SSE 12:30:09 10° ENE
[s.n.66874] 1.8 12:25:57 10° SW 12:28:27 60° SSE 12:30:57 10° ENE
OAO 3 Copernicus 4.3 12:24:50 15° W 12:29:04 73° N 12:34:04 10° E
[s.n.66872] 1.7 12:26:44 10° SW 12:29:14 62° SSE 12:31:45 10° ENE
[s.n.66871] 1.7 12:27:17 10° SW 12:29:47 63° SSE 12:32:18 10° ENE
[s.n.66870] 1.7 12:28:05 10° SW 12:30:36 64° SSE 12:33:08 10° ENE
Cosmos 2360 Rocket 2.4 12:25:19 10° NNW 12:30:57 76° ENE 12:36:33 10° SSE
Tiangong -0.5 12:29:06 14° W 12:31:09 24° SW 12:33:49 10° SSE
Cosmos 1833 4.4 12:25:54 10° SW 12:31:19 49° WNW 12:36:49 10° N
[s.n.66869] 1.6 12:28:52 10° SW 12:31:24 66° SSE 12:33:56 10° ENE
[s.n.66868] 1.6 12:29:30 10° SW 12:32:01 67° SSE 12:34:32 10° ENE
[s.n.66867] 1.6 12:30:17 10° SW 12:32:49 69° SSE 12:35:21 10° ENE
Cosmos 405 Rocket 2.9 12:30:14 10° SW 12:33:12 33° W 12:36:12 10° NNW
COSMO-SKYMED 1 2.9 12:29:32 10° S 12:33:23 39° W 12:37:15 10° NNW
[s.n.66866] 1.5 12:31:01 10° SW 12:33:34 70° SSE 12:36:06 10° ENE
[s.n.66865] 1.5 12:31:34 10° SW 12:34:06 72° SSE 12:36:39 10° ENE
Cosmos 1626 Rocket 3.8 12:30:08 10° SSW 12:34:21 45° W 12:38:35 10° N
CZ-2D R/B 4.4 12:31:42 10° NNE 12:34:42 39° E 12:37:41 10° S
[s.n.66860] 1.5 12:32:14 10° SW 12:34:46 73° SSE 12:37:20 10° ENE
[s.n.66864] 1.5 12:32:52 10° SW 12:35:24 74° SSE 12:37:57 10° ENE
OAO 3 Rocket 3.1 12:30:52 10° WSW 12:35:32 89° NNW 12:40:16 10° ENE
[s.n.66863] 1.4 12:33:28 10° SW 12:36:00 76° SSE 12:38:33 10° ENE
[s.n.66861] 1.4 12:34:17 10° SW 12:36:49 77° SSE 12:39:23 10° ENE
Cosmos 2333 Rocket 2.3 12:31:30 10° NNW 12:37:10 61° WSW 12:42:46 10° S
[s.n.66862] 1.4 12:34:56 10° SW 12:37:28 79° SSE 12:40:02 10° ENE
Cosmos-2242 3.5 12:33:38 10° NNW 12:37:30 36° W 12:41:19 10° SSW
[s.n.66859] 1.4 12:35:38 10° SW 12:38:11 80° SSE 12:40:45 10° ENE
[s.n.66858] 1.3 12:36:18 10° WSW 12:38:51 82° SSE 12:41:25 10° ENE
[s.n.66857] 1.3 12:36:53 10° WSW 12:39:26 83° SSE 12:42:01 10° ENE
USA 59 Rocket 2.0 12:36:56 11° WNW 12:39:57 19° WSW 12:43:58 10° SSW
[s.n.66856] 1.3 12:37:26 10° WSW 12:40:00 84° SSE 12:42:34 10° ENE
[s.n.66855] 1.3 12:38:07 10° WSW 12:40:41 86° SE 12:43:15 10° ENE
[s.n.66854] 1.3 12:38:43 10° WSW 12:41:15 87° SSE 12:43:50 10° ENE
Okean 1 3.7 12:38:10 10° NNW 12:41:22 32° W 12:44:34 10° SSW
[s.n.66853] 1.3 12:39:26 10° WSW 12:41:59 89° SE 12:44:33 10° ENE
[s.n.66852] 1.3 12:40:12 10° WSW 12:42:45 89° NNW 12:45:19 10° ENE
[s.n.66851] 1.3 12:40:43 10° WSW 12:43:17 88° NNW 12:45:51 10° ENE
[s.n.66850] 1.2 12:41:16 10° WSW 12:43:49 87° NW 12:46:24 10° ENE
[s.n.66849] 1.2 12:41:59 10° WSW 12:44:32 85° NNW 12:47:07 10° ENE
[s.n.66848] 1.2 12:42:31 10° WSW 12:45:04 84° NW 12:47:39 10° ENE
SL-4 R/B 3.8 12:44:35 10° N 12:46:32 15° NNE 12:48:28 10° ENE
MOS 1 Rocket 4.5 12:42:00 10° NNE 12:47:14 55° E 12:52:16 10° S
Cosmos 2219 Rocket 2.8 12:41:59 10° NNW 12:47:34 60° ENE 12:53:05 10° SSE
ARIANE 5 R/B 3.1 12:45:41 10° NNE 12:50:53 67° ESE 12:56:03 10° S
IGS 5A 4.0 12:48:05 10° N 12:51:41 33° WNW 12:55:17 10° SW
Cosmos 2322 Rocket 2.4 12:49:41 10° NNW 12:55:14 56° WSW 13:00:43 10° S
Cosmos 2285 Rocket 4.1 12:48:55 10° NNW 12:55:17 73° WSW 13:01:41 10° S
ATLAS 2AS CENTAUR R/B 3.0 12:50:32 10° SW 12:57:21 48° NW 13:04:01 10° NNE
Cosmos 773 Rocket 4.3 23:43:02 10° NNW 23:48:16 76° WSW 23:53:30 10° S
IRIDIUM 103 4.3 23:43:14 10° N 23:48:27 70° E 23:53:38 10° S
MOS 1 Rocket 4.0 23:45:09 10° SE 23:49:29 34° ENE 23:54:02 10° N
Cosmos 990 Rocket 4.1 23:45:16 10° SSW 23:50:22 84° WNW 23:55:32 10° NNE
Cosmos 2227 Rocket 2.9 23:46:37 10° N 23:51:37 32° ENE 23:56:36 10° SE
EXPRESS MD2 3.0 23:49:43 10° WSW 23:51:52 43° NW 23:54:43 10° NE
Cosmos 2084 Rocket 4.0 23:48:03 10° NNW 23:51:54 34° NE 23:55:43 10° ESE
Aureole 1 Rocket 3.5 23:50:48 10° S 23:54:31 40° E 23:59:08 10° NNE
